Powrót do katalogu

DELTA 1 DEB

AktywnySSO
NORAD 21292·DEBRIS·🇺🇸 United States

Wystrzelony Jun 12, 1975 z Vandenberg Space Force Base

Loading…

Następne Przeloty (najbliższe 24 godziny)

TLE

ŚwieżeSource: Space-Track

Epoka: Sep 14, 2026, 11:34 UTC

1 21292U 75052AD  26257.48202812 -.00000006  00000-0  45918-4 0  9992
2 21292  99.7613 132.8109 0222345 214.0382 270.2052 13.58671502749562

Śledź DELTA 1 DEB w czasie rzeczywistym z AllMySat

Download on the App Store